User: anonymous   Login
Location: Ar Ranvel
(48.3000°N, 4.8833°W)
Time: 00:20:18
(UTC+00:00)
Language:

Genesis I - Orbit

View from above orbital plane
View from above orbital plane
View from above satellite
View from above satellite

Ground track
Ground track

The orbit data is extracted from the following two-line orbital elements,

1 29252U 06029A   21269.56341817  .00001953  00000-0  99893-4 0  9992
2 29252  64.5211 216.2536 0053474 300.9717  58.6158 15.18885661838872
Epoch (UTC): 26 September 2021 13:31:19
Eccentricity: 0.0053474
inclination: 64.5211°
perigee height: 472 km
apogee height: 546 km
right ascension of ascending node: 216.2536°
argument of perigee: 300.9717°
revolutions per day: 15.18885661
mean anomaly at epoch: 58.6158°
orbit number at epoch: 83887

The dashed part of the orbit path shows where the satellite is in the earth's shadow,  

DLR